Location: Newark
(34.9500°N, 139.9667°E)
Time: 10:53:53
(UTC+00:00)

Vanguard 2 Rocket - Pass Details

Date: 12 December 2019
Orbit: 554 x 3326 km, 32.9° (Epoch: 23 January)

Event Time Altitude Azimuth Distance (km) Brightness Sun altitude
Rises 09:51:56 0° 262° (W) 6,455 12.5 -28.5°
Reaches altitude 10° 09:56:51 10° 262° (W) 5,041 11.6 -29.5°
Maximum altitude 10:10:01 80° 179° (S) 1,544 7.8 -32.2°
Enters shadow 10:11:06 70° 120° (ESE) 1,520 7.7 -32.4°
Drops below altitude 10° 10:17:08 10° 93° (E) 2,864 - -33.6°
Sets 10:19:13 0° 92° (E) 3,582 - -34.0°
